owner,sensor,date,latitude,longitude,vertical_datum,wind_speed,wind_to_direction,wind_speed_of_gust,qcFlag 
DISL,ioos:station:DISL:DISL:1,2012-02-01T00:00:00Z,30.2513,-88.0778,9.68,6.21,113.1,-9999.0,'1111122,1111122,1111122' 
DISL,ioos:station:DISL:DISL:1,2012-02-01T00:30:00Z,30.2513,-88.0778,9.68,5.84,110.8,-9999.0,'1111122,1111122,1111122' 
DISL,ioos:station:DISL:DISL:1,2012-02-01T01:00:00Z,30.2513,-88.0778,9.68,5.64,116.0,-9999.0,'1111122,1111122,1111122' 
DISL,ioos:station:DISL:DISL:1,2012-02-01T01:30:00Z,30.2513,-88.0778,9.68,5.26,115.9,-9999.0,'1111122,1111122,1111122' 
DISL,ioos:station:DISL:DISL:1,2012-02-01T02:00:00Z,30.2513,-88.0778,9.68,3.56,118.0,-9999.0,'1111122,1111122,1111122' 
DISL,ioos:station:DISL:DISL:1,2012-02-01T02:30:00Z,30.2513,-88.0778,9.68,3.49,106.2,-9999.0,'1111122,1111122,1111122' 
DISL,ioos:station:DISL:DISL:1,2012-02-01T03:00:00Z,30.2513,-88.0778,9.68,3.82,99.1,-9999.0,'1111122,1111122,1111122' 
DISL,ioos:station:DISL:DISL:1,2012-02-01T03:30:00Z,30.2513,-88.0778,9.68,3.3,111.3,-9999.0,'1111122,1111122,1111122' 
DISL,ioos:station:DISL:DISL:1,2012-02-01T04:00:00Z,30.2513,-88.0778,9.68,3.37,100.5,-9999.0,'1111122,1111122,1111122' 
DISL,ioos:station:DISL:DISL:1,2012-02-01T04:30:00Z,30.2513,-88.0778,9.68,2.84,106.5,-9999.0,'1111122,1111122,1111122' 
DISL,ioos:station:DISL:DISL:1,2012-02-01T05:00:00Z,30.2513,-88.0778,9.68,3.85,113.5,-9999.0,'1111122,1111122,1111122' 
DISL,ioos:station:DISL:DISL:1,2012-02-01T05:30:00Z,30.2513,-88.0778,9.68,4.32,111.2,-9999.0,'1111122,1111122,1111122' 
DISL,ioos:station:DISL:DISL:1,2012-02-01T06:00:00Z,30.2513,-88.0778,9.68,4.16,118.1,-9999.0,'1111122,1111122,1111122' 
DISL,ioos:station:DISL:DISL:1,2012-02-01T06:30:00Z,30.2513,-88.0778,9.68,3.7,116.8,-9999.0,'1111122,1111122,1111122' 
DISL,ioos:station:DISL:DISL:1,2012-02-01T07:00:00Z,30.2513,-88.0778,9.68,4.0,114.8,-9999.0,'1111122,1111122,1111122' 
DISL,ioos:station:DISL:DISL:1,2012-02-01T07:30:00Z,30.2513,-88.0778,9.68,4.62,111.5,-9999.0,'1111122,1111122,1111122' 
DISL,ioos:station:DISL:DISL:1,2012-02-01T08:00:00Z,30.2513,-88.0778,9.68,4.18,118.6,-9999.0,'1111122,1111122,1111122' 
DISL,ioos:station:DISL:DISL:1,2012-02-01T08:30:00Z,30.2513,-88.0778,9.68,4.39,116.6,-9999.0,'1111122,1111122,1111122' 
DISL,ioos:station:DISL:DISL:1,2012-02-01T09:00:00Z,30.2513,-88.0778,9.68,4.21,124.4,-9999.0,'1111122,1111122,1111122' 
DISL,ioos:station:DISL:DISL:1,2012-02-01T09:30:00Z,30.2513,-88.0778,9.68,3.88,122.7,-9999.0,'1111122,1111122,1111122' 
DISL,ioos:station:DISL:DISL:1,2012-02-01T10:00:00Z,30.2513,-88.0778,9.68,3.52,124.1,-9999.0,'1111122,1111122,1111122' 
DISL,ioos:station:DISL:DISL:1,2012-02-01T10:30:00Z,30.2513,-88.0778,9.68,2.77,112.9,-9999.0,'1111122,1111122,1111122' 
DISL,ioos:station:DISL:DISL:1,2012-02-01T11:00:00Z,30.2513,-88.0778,9.68,2.29,108.7,-9999.0,'1111122,1111122,1111122' 
DISL,ioos:station:DISL:DISL:1,2012-02-01T11:30:00Z,30.2513,-88.0778,9.68,2.9,116.4,-9999.0,'1111122,1111122,1111122' 
DISL,ioos:station:DISL:DISL:1,2012-02-01T12:00:00Z,30.2513,-88.0778,9.68,3.9,123.6,-9999.0,'1111122,1111122,1111122' 
DISL,ioos:station:DISL:DISL:1,2012-02-01T12:30:00Z,30.2513,-88.0778,9.68,4.52,133.9,-9999.0,'1111122,1111122,1111122' 
DISL,ioos:station:DISL:DISL:1,2012-02-01T13:00:00Z,30.2513,-88.0778,9.68,4.55,128.4,-9999.0,'1111122,1111122,1111122' 
DISL,ioos:station:DISL:DISL:1,2012-02-01T13:30:00Z,30.2513,-88.0778,9.68,3.88,123.3,-9999.0,'1111122,1111122,1111122' 
DISL,ioos:station:DISL:DISL:1,2012-02-01T14:00:00Z,30.2513,-88.0778,9.68,3.51,132.8,-9999.0,'1111122,1111122,1111122' 
DISL,ioos:station:DISL:DISL:1,2012-02-01T14:30:00Z,30.2513,-88.0778,9.68,2.78,137.6,-9999.0,'1111122,1111122,1111122' 
DISL,ioos:station:DISL:DISL:1,2012-02-01T15:00:00Z,30.2513,-88.0778,9.68,3.02,148.2,-9999.0,'1111122,1111122,1111122' 
DISL,ioos:station:DISL:DISL:1,2012-02-01T15:30:00Z,30.2513,-88.0778,9.68,2.58,141.9,-9999.0,'1111122,1111122,1111122' 
DISL,ioos:station:DISL:DISL:1,2012-02-01T16:00:00Z,30.2513,-88.0778,9.68,2.48,146.2,-9999.0,'1111122,1111122,1111122' 
DISL,ioos:station:DISL:DISL:1,2012-02-01T16:30:00Z,30.2513,-88.0778,9.68,3.04,153.4,-9999.0,'1111122,1111122,1111122' 
DISL,ioos:station:DISL:DISL:1,2012-02-01T17:00:00Z,30.2513,-88.0778,9.68,2.1,162.7,-9999.0,'1111122,1111122,1111122' 
DISL,ioos:station:DISL:DISL:1,2012-02-01T17:30:00Z,30.2513,-88.0778,9.68,3.74,156.3,-9999.0,'1111122,1111122,1111122' 
DISL,ioos:station:DISL:DISL:1,2012-02-01T18:00:00Z,30.2513,-88.0778,9.68,6.31,345.1,-9999.0,'1111122,1111122,1111122' 
DISL,ioos:station:DISL:DISL:1,2012-02-01T18:30:00Z,30.2513,-88.0778,9.68,2.57,20.9,-9999.0,'1111122,1111122,1111122' 
DISL,ioos:station:DISL:DISL:1,2012-02-01T19:00:00Z,30.2513,-88.0778,9.68,1.46,20.43,-9999.0,'1111122,1111122,1111122' 
DISL,ioos:station:DISL:DISL:1,2012-02-01T19:30:00Z,30.2513,-88.0778,9.68,0.86,125.3,-9999.0,'1111122,1111122,1111122' 
DISL,ioos:station:DISL:DISL:1,2012-02-01T20:00:00Z,30.2513,-88.0778,9.68,2.82,142.9,-9999.0,'1111122,1111122,1111122' 
DISL,ioos:station:DISL:DISL:1,2012-02-01T20:30:00Z,30.2513,-88.0778,9.68,1.98,123.7,-9999.0,'1111122,1111122,1111122' 
DISL,ioos:station:DISL:DISL:1,2012-02-01T21:00:00Z,30.2513,-88.0778,9.68,2.29,122.5,-9999.0,'1111122,1111122,1111122' 
DISL,ioos:station:DISL:DISL:1,2012-02-01T21:30:00Z,30.2513,-88.0778,9.68,1.73,139.1,-9999.0,'1111122,1111122,1111122' 
DISL,ioos:station:DISL:DISL:1,2012-02-01T22:00:00Z,30.2513,-88.0778,9.68,2.21,73.7,-9999.0,'1111122,1111122,1111122' 
DISL,ioos:station:DISL:DISL:1,2012-02-01T22:30:00Z,30.2513,-88.0778,9.68,2.8,107.8,-9999.0,'1111122,1111122,1111122' 
DISL,ioos:station:DISL:DISL:1,2012-02-01T23:00:00Z,30.2513,-88.0778,9.68,1.61,134.4,-9999.0,'1111122,1111122,1111122' 
DISL,ioos:station:DISL:DISL:1,2012-02-01T23:30:00Z,30.2513,-88.0778,9.68,1.53,127.8,-9999.0,'1111122,1111122,1111122' 
DISL,ioos:station:DISL:DISL:1,2012-02-02T00:00:00Z,30.2513,-88.0778,9.68,3.04,113.0,-9999.0,'1111122,1111122,1111122' 
DISL,ioos:station:DISL:DISL:1,2012-02-02T00:30:00Z,30.2513,-88.0778,9.68,2.47,102.7,-9999.0,'1111122,1111122,1111122' 
DISL,ioos:station:DISL:DISL:1,2012-02-02T01:00:00Z,30.2513,-88.0778,9.68,2.56,122.6,-9999.0,'1111122,1111122,1111122' 
DISL,ioos:station:DISL:DISL:1,2012-02-02T01:30:00Z,30.2513,-88.0778,9.68,3.27,136.3,-9999.0,'1111122,1111122,1111122' 
DISL,ioos:station:DISL:DISL:1,2012-02-02T02:00:00Z,30.2513,-88.0778,9.68,3.8,131.6,-9999.0,'1111122,1111122,1111122' 
DISL,ioos:station:DISL:DISL:1,2012-02-02T02:30:00Z,30.2513,-88.0778,9.68,6.05,136.0,-9999.0,'1111122,1111122,1111122' 
DISL,ioos:station:DISL:DISL:1,2012-02-02T03:00:00Z,30.2513,-88.0778,9.68,4.25,147.2,-9999.0,'1111122,1111122,1111122' 
DISL,ioos:station:DISL:DISL:1,2012-02-02T03:30:00Z,30.2513,-88.0778,9.68,1.15,264.2,-9999.0,'1111122,1111122,1111122' 
DISL,ioos:station:DISL:DISL:1,2012-02-02T04:00:00Z,30.2513,-88.0778,9.68,1.08,182.8,-9999.0,'1111122,1111122,1111122' 
DISL,ioos:station:DISL:DISL:1,2012-02-02T04:30:00Z,30.2513,-88.0778,9.68,1.46,133.6,-9999.0,'1111122,1111122,1111122' 
DISL,ioos:station:DISL:DISL:1,2012-02-02T05:00:00Z,30.2513,-88.0778,9.68,2.18,61.56,-9999.0,'1111122,1111122,1111122' 
DISL,ioos:station:DISL:DISL:1,2012-02-02T05:30:00Z,30.2513,-88.0778,9.68,0.45,124.6,-9999.0,'1111122,1111122,1111122' 
DISL,ioos:station:DISL:DISL:1,2012-02-02T06:00:00Z,30.2513,-88.0778,9.68,1.51,164.5,-9999.0,'1111122,1111122,1111122' 
DISL,ioos:station:DISL:DISL:1,2012-02-02T06:30:00Z,30.2513,-88.0778,9.68,1.05,355.9,-9999.0,'1111122,1111122,1111122' 
DISL,ioos:station:DISL:DISL:1,2012-02-02T07:00:00Z,30.2513,-88.0778,9.68,1.61,26.37,-9999.0,'1111122,1111122,1111122' 
DISL,ioos:station:DISL:DISL:1,2012-02-02T07:30:00Z,30.2513,-88.0778,9.68,0.3,36.18,-9999.0,'1111122,1111122,1111122' 
DISL,ioos:station:DISL:DISL:1,2012-02-02T08:00:00Z,30.2513,-88.0778,9.68,1.8,46.1,-9999.0,'1111122,1111122,1111122' 
DISL,ioos:station:DISL:DISL:1,2012-02-02T08:30:00Z,30.2513,-88.0778,9.68,0.64,146.7,-9999.0,'1111122,1111122,1111122' 
DISL,ioos:station:DISL:DISL:1,2012-02-02T09:00:00Z,30.2513,-88.0778,9.68,0.8,203.9,-9999.0,'1111122,1111122,1111122' 
DISL,ioos:station:DISL:DISL:1,2012-02-02T09:30:00Z,30.2513,-88.0778,9.68,0.22,250.3,-9999.0,'1111122,1111122,1111122' 
DISL,ioos:station:DISL:DISL:1,2012-02-02T10:00:00Z,30.2513,-88.0778,9.68,0.4,336.8,-9999.0,'1111122,1111122,1111122' 
DISL,ioos:station:DISL:DISL:1,2012-02-02T10:30:00Z,30.2513,-88.0778,9.68,1.61,322.4,-9999.0,'1111122,1111122,1111122' 
DISL,ioos:station:DISL:DISL:1,2012-02-02T11:00:00Z,30.2513,-88.0778,9.68,1.23,318.2,-9999.0,'1111122,1111122,1111122' 
DISL,ioos:station:DISL:DISL:1,2012-02-02T11:30:00Z,30.2513,-88.0778,9.68,0.59,344.2,-9999.0,'1111122,1111122,1111122' 
DISL,ioos:station:DISL:DISL:1,2012-02-02T12:00:00Z,30.2513,-88.0778,9.68,0.58,104.2,-9999.0,'1111122,1111122,1111122' 
DISL,ioos:station:DISL:DISL:1,2012-02-02T12:30:00Z,30.2513,-88.0778,9.68,1.31,354.7,-9999.0,'1111122,1111122,1111122' 
DISL,ioos:station:DISL:DISL:1,2012-02-02T13:00:00Z,30.2513,-88.0778,9.68,1.89,350.8,-9999.0,'1111122,1111122,1111122' 
DISL,ioos:station:DISL:DISL:1,2012-02-02T13:30:00Z,30.2513,-88.0778,9.68,3.99,18.43,-9999.0,'1111122,1111122,1111122' 
DISL,ioos:station:DISL:DISL:1,2012-02-02T14:00:00Z,30.2513,-88.0778,9.68,2.4,30.15,-9999.0,'1111122,1111122,1111122' 
DISL,ioos:station:DISL:DISL:1,2012-02-02T14:30:00Z,30.2513,-88.0778,9.68,1.88,34.46,-9999.0,'1111122,1111122,1111122' 
DISL,ioos:station:DISL:DISL:1,2012-02-02T15:00:00Z,30.2513,-88.0778,9.68,1.61,16.61,-9999.0,'1111122,1111122,1111122' 
DISL,ioos:station:DISL:DISL:1,2012-02-02T15:30:00Z,30.2513,-88.0778,9.68,2.87,21.57,-9999.0,'1111122,1111122,1111122' 
DISL,ioos:station:DISL:DISL:1,2012-02-02T16:00:00Z,30.2513,-88.0778,9.68,2.66,29.31,-9999.0,'1111122,1111122,1111122' 
DISL,ioos:station:DISL:DISL:1,2012-02-02T16:30:00Z,30.2513,-88.0778,9.68,1.51,356.3,-9999.0,'1111122,1111122,1111122' 
DISL,ioos:station:DISL:DISL:1,2012-02-02T17:00:00Z,30.2513,-88.0778,9.68,0.99,344.7,-9999.0,'1111122,1111122,1111122' 
DISL,ioos:station:DISL:DISL:1,2012-02-02T17:30:00Z,30.2513,-88.0778,9.68,2.15,9.21,-9999.0,'1111122,1111122,1111122' 
DISL,ioos:station:DISL:DISL:1,2012-02-02T18:00:00Z,30.2513,-88.0778,9.68,2.34,21.66,-9999.0,'1111122,1111122,1111122' 
DISL,ioos:station:DISL:DISL:1,2012-02-02T18:30:00Z,30.2513,-88.0778,9.68,2.26,13.42,-9999.0,'1111122,1111122,1111122' 
DISL,ioos:station:DISL:DISL:1,2012-02-02T19:00:00Z,30.2513,-88.0778,9.68,1.69,41.99,-9999.0,'1111122,1111122,1111122' 
DISL,ioos:station:DISL:DISL:1,2012-02-02T19:30:00Z,30.2513,-88.0778,9.68,1.02,58.67,-9999.0,'1111122,1111122,1111122' 
DISL,ioos:station:DISL:DISL:1,2012-02-02T20:00:00Z,30.2513,-88.0778,9.68,1.6,15.32,-9999.0,'1111122,1111122,1111122' 
DISL,ioos:station:DISL:DISL:1,2012-02-02T20:30:00Z,30.2513,-88.0778,9.68,2.39,10.11,-9999.0,'1111122,1111122,1111122' 
DISL,ioos:station:DISL:DISL:1,2012-02-02T21:00:00Z,30.2513,-88.0778,9.68,1.55,15.13,-9999.0,'1111122,1111122,1111122' 
DISL,ioos:station:DISL:DISL:1,2012-02-02T21:30:00Z,30.2513,-88.0778,9.68,3.11,22.84,-9999.0,'1111122,1111122,1111122' 
DISL,ioos:station:DISL:DISL:1,2012-02-02T22:00:00Z,30.2513,-88.0778,9.68,2.62,41.69,-9999.0,'1111122,1111122,1111122' 
DISL,ioos:station:DISL:DISL:1,2012-02-02T22:30:00Z,30.2513,-88.0778,9.68,1.74,120.9,-9999.0,'1111122,1111122,1111122' 
DISL,ioos:station:DISL:DISL:1,2012-02-02T23:00:00Z,30.2513,-88.0778,9.68,2.7,86.5,-9999.0,'1111122,1111122,1111122' 
DISL,ioos:station:DISL:DISL:1,2012-02-02T23:30:00Z,30.2513,-88.0778,9.68,2.33,76.4,-9999.0,'1111122,1111122,1111122' 
DISL,ioos:station:DISL:DISL:1,2012-02-03T00:00:00Z,30.2513,-88.0778,9.68,4.91,65.35,-9999.0,'1111122,1111122,1111122' 
DISL,ioos:station:DISL:DISL:1,2012-02-03T00:30:00Z,30.2513,-88.0778,9.68,3.52,73.7,-9999.0,'1111122,1111122,1111122' 
DISL,ioos:station:DISL:DISL:1,2012-02-03T01:00:00Z,30.2513,-88.0778,9.68,2.79,60.5,-9999.0,'1111122,1111122,1111122' 
DISL,ioos:station:DISL:DISL:1,2012-02-03T01:30:00Z,30.2513,-88.0778,9.68,3.98,64.74,-9999.0,'1111122,1111122,1111122' 
DISL,ioos:station:DISL:DISL:1,2012-02-03T02:00:00Z,30.2513,-88.0778,9.68,3.84,94.8,-9999.0,'1111122,1111122,1111122' 
DISL,ioos:station:DISL:DISL:1,2012-02-03T02:30:00Z,30.2513,-88.0778,9.68,4.34,82.3,-9999.0,'1111122,1111122,1111122' 
DISL,ioos:station:DISL:DISL:1,2012-02-03T03:00:00Z,30.2513,-88.0778,9.68,4.15,62.9,-9999.0,'1111122,1111122,1111122' 
DISL,ioos:station:DISL:DISL:1,2012-02-03T03:30:00Z,30.2513,-88.0778,9.68,4.75,76.9,-9999.0,'1111122,1111122,1111122' 
DISL,ioos:station:DISL:DISL:1,2012-02-03T04:00:00Z,30.2513,-88.0778,9.68,4.16,74.1,-9999.0,'1111122,1111122,1111122' 
DISL,ioos:station:DISL:DISL:1,2012-02-03T04:30:00Z,30.2513,-88.0778,9.68,2.16,107.3,-9999.0,'1111122,1111122,1111122' 
DISL,ioos:station:DISL:DISL:1,2012-02-03T05:00:00Z,30.2513,-88.0778,9.68,2.22,101.8,-9999.0,'1111122,1111122,1111122' 
DISL,ioos:station:DISL:DISL:1,2012-02-03T05:30:00Z,30.2513,-88.0778,9.68,2.14,80.4,-9999.0,'1111122,1111122,1111122' 
DISL,ioos:station:DISL:DISL:1,2012-02-03T06:00:00Z,30.2513,-88.0778,9.68,2.31,63.74,-9999.0,'1111122,1111122,1111122' 
DISL,ioos:station:DISL:DISL:1,2012-02-03T06:30:00Z,30.2513,-88.0778,9.68,3.26,18.55,-9999.0,'1111122,1111122,1111122' 
DISL,ioos:station:DISL:DISL:1,2012-02-03T07:00:00Z,30.2513,-88.0778,9.68,2.66,46.62,-9999.0,'1111122,1111122,1111122' 
DISL,ioos:station:DISL:DISL:1,2012-02-03T07:30:00Z,30.2513,-88.0778,9.68,1.84,45.74,-9999.0,'1111122,1111122,1111122' 
DISL,ioos:station:DISL:DISL:1,2012-02-03T08:00:00Z,30.2513,-88.0778,9.68,2.88,48.45,-9999.0,'1111122,1111122,1111122' 
DISL,ioos:station:DISL:DISL:1,2012-02-03T08:30:00Z,30.2513,-88.0778,9.68,2.54,44.51,-9999.0,'1111122,1111122,1111122' 
DISL,ioos:station:DISL:DISL:1,2012-02-03T09:00:00Z,30.2513,-88.0778,9.68,3.16,47.43,-9999.0,'1111122,1111122,1111122' 
DISL,ioos:station:DISL:DISL:1,2012-02-03T09:30:00Z,30.2513,-88.0778,9.68,3.23,57.55,-9999.0,'1111122,1111122,1111122' 
DISL,ioos:station:DISL:DISL:1,2012-02-03T10:00:00Z,30.2513,-88.0778,9.68,2.9,69.41,-9999.0,'1111122,1111122,1111122' 
DISL,ioos:station:DISL:DISL:1,2012-02-03T10:30:00Z,30.2513,-88.0778,9.68,3.59,59.42,-9999.0,'1111122,1111122,1111122' 
DISL,ioos:station:DISL:DISL:1,2012-02-03T11:00:00Z,30.2513,-88.0778,9.68,4.18,55.53,-9999.0,'1111122,1111122,1111122' 
DISL,ioos:station:DISL:DISL:1,2012-02-03T11:30:00Z,30.2513,-88.0778,9.68,4.47,76.8,-9999.0,'1111122,1111122,1111122' 
DISL,ioos:station:DISL:DISL:1,2012-02-03T12:00:00Z,30.2513,-88.0778,9.68,5.62,79.0,-9999.0,'1111122,1111122,1111122' 
DISL,ioos:station:DISL:DISL:1,2012-02-03T12:30:00Z,30.2513,-88.0778,9.68,3.26,66.34,-9999.0,'1111122,1111122,1111122' 
DISL,ioos:station:DISL:DISL:1,2012-02-03T13:00:00Z,30.2513,-88.0778,9.68,3.89,77.5,-9999.0,'1111122,1111122,1111122' 
DISL,ioos:station:DISL:DISL:1,2012-02-03T13:30:00Z,30.2513,-88.0778,9.68,6.69,94.9,-9999.0,'1111122,1111122,1111122' 
DISL,ioos:station:DISL:DISL:1,2012-02-03T14:00:00Z,30.2513,-88.0778,9.68,7.35,96.3,-9999.0,'1111122,1111122,1111122' 
DISL,ioos:station:DISL:DISL:1,2012-02-03T14:30:00Z,30.2513,-88.0778,9.68,8.38,101.3,-9999.0,'1111122,1111122,1111122' 
DISL,ioos:station:DISL:DISL:1,2012-02-03T15:00:00Z,30.2513,-88.0778,9.68,8.57,103.9,-9999.0,'1111122,1111122,1111122' 
DISL,ioos:station:DISL:DISL:1,2012-02-03T15:30:00Z,30.2513,-88.0778,9.68,7.47,106.4,-9999.0,'1111122,1111122,1111122' 
DISL,ioos:station:DISL:DISL:1,2012-02-03T16:00:00Z,30.2513,-88.0778,9.68,7.6,99.0,-9999.0,'1111122,1111122,1111122' 
DISL,ioos:station:DISL:DISL:1,2012-02-03T16:30:00Z,30.2513,-88.0778,9.68,7.54,106.0,-9999.0,'1111122,1111122,1111122' 
DISL,ioos:station:DISL:DISL:1,2012-02-03T17:00:00Z,30.2513,-88.0778,9.68,6.07,102.9,-9999.0,'1111122,1111122,1111122' 
DISL,ioos:station:DISL:DISL:1,2012-02-03T17:30:00Z,30.2513,-88.0778,9.68,5.97,99.6,-9999.0,'1111122,1111122,1111122' 
DISL,ioos:station:DISL:DISL:1,2012-02-03T18:00:00Z,30.2513,-88.0778,9.68,6.36,100.6,-9999.0,'1111122,1111122,1111122' 
DISL,ioos:station:DISL:DISL:1,2012-02-03T18:30:00Z,30.2513,-88.0778,9.68,6.11,100.6,-9999.0,'1111122,1111122,1111122' 
DISL,ioos:station:DISL:DISL:1,2012-02-03T19:00:00Z,30.2513,-88.0778,9.68,6.04,104.0,-9999.0,'1111122,1111122,1111122' 
DISL,ioos:station:DISL:DISL:1,2012-02-03T19:30:00Z,30.2513,-88.0778,9.68,7.18,101.2,-9999.0,'1111122,1111122,1111122' 
DISL,ioos:station:DISL:DISL:1,2012-02-03T20:00:00Z,30.2513,-88.0778,9.68,7.72,103.4,-9999.0,'1111122,1111122,1111122' 
DISL,ioos:station:DISL:DISL:1,2012-02-03T20:30:00Z,30.2513,-88.0778,9.68,6.79,102.7,-9999.0,'1111122,1111122,1111122' 
DISL,ioos:station:DISL:DISL:1,2012-02-03T21:00:00Z,30.2513,-88.0778,9.68,6.34,102.5,-9999.0,'1111122,1111122,1111122' 
DISL,ioos:station:DISL:DISL:1,2012-02-03T21:30:00Z,30.2513,-88.0778,9.68,4.89,104.1,-9999.0,'1111122,1111122,1111122' 
DISL,ioos:station:DISL:DISL:1,2012-02-03T22:00:00Z,30.2513,-88.0778,9.68,5.1,102.5,-9999.0,'1111122,1111122,1111122' 
DISL,ioos:station:DISL:DISL:1,2012-02-03T22:30:00Z,30.2513,-88.0778,9.68,5.95,98.6,-9999.0,'1111122,1111122,1111122' 
DISL,ioos:station:DISL:DISL:1,2012-02-03T23:00:00Z,30.2513,-88.0778,9.68,6.74,96.9,-9999.0,'1111122,1111122,1111122' 
DISL,ioos:station:DISL:DISL:1,2012-02-03T23:30:00Z,30.2513,-88.0778,9.68,6.73,96.3,-9999.0,'1111122,1111122,1111122' 
DISL,ioos:station:DISL:DISL:1,2012-02-04T00:00:00Z,30.2513,-88.0778,9.68,6.44,95.1,-9999.0,'1111122,1111122,1111122' 
DISL,ioos:station:DISL:DISL:1,2012-02-04T00:30:00Z,30.2513,-88.0778,9.68,6.56,96.3,-9999.0,'1111122,1111122,1111122' 
DISL,ioos:station:DISL:DISL:1,2012-02-04T01:00:00Z,30.2513,-88.0778,9.68,6.82,96.2,-9999.0,'1111122,1111122,1111122' 
DISL,ioos:station:DISL:DISL:1,2012-02-04T01:30:00Z,30.2513,-88.0778,9.68,7.86,100.0,-9999.0,'1111122,1111122,1111122' 
DISL,ioos:station:DISL:DISL:1,2012-02-04T02:00:00Z,30.2513,-88.0778,9.68,8.12,99.7,-9999.0,'1111122,1111122,1111122' 
DISL,ioos:station:DISL:DISL:1,2012-02-04T02:30:00Z,30.2513,-88.0778,9.68,7.21,98.3,-9999.0,'1111122,1111122,1111122' 
DISL,ioos:station:DISL:DISL:1,2012-02-04T03:00:00Z,30.2513,-88.0778,9.68,7.68,98.1,-9999.0,'1111122,1111122,1111122' 
DISL,ioos:station:DISL:DISL:1,2012-02-04T03:30:00Z,30.2513,-88.0778,9.68,7.56,105.7,-9999.0,'1111122,1111122,1111122' 
DISL,ioos:station:DISL:DISL:1,2012-02-04T04:00:00Z,30.2513,-88.0778,9.68,7.9,105.5,-9999.0,'1111122,1111122,1111122' 
DISL,ioos:station:DISL:DISL:1,2012-02-04T04:30:00Z,30.2513,-88.0778,9.68,7.31,106.8,-9999.0,'1111122,1111122,1111122' 
DISL,ioos:station:DISL:DISL:1,2012-02-04T05:00:00Z,30.2513,-88.0778,9.68,7.9,111.0,-9999.0,'1111122,1111122,1111122' 
DISL,ioos:station:DISL:DISL:1,2012-02-04T05:30:00Z,30.2513,-88.0778,9.68,6.6,113.0,-9999.0,'1111122,1111122,1111122' 
DISL,ioos:station:DISL:DISL:1,2012-02-04T06:00:00Z,30.2513,-88.0778,9.68,6.36,116.3,-9999.0,'1111122,1111122,1111122' 
DISL,ioos:station:DISL:DISL:1,2012-02-04T06:30:00Z,30.2513,-88.0778,9.68,6.03,116.4,-9999.0,'1111122,1111122,1111122' 
DISL,ioos:station:DISL:DISL:1,2012-02-04T07:00:00Z,30.2513,-88.0778,9.68,4.71,119.9,-9999.0,'1111122,1111122,1111122' 
DISL,ioos:station:DISL:DISL:1,2012-02-04T07:30:00Z,30.2513,-88.0778,9.68,5.14,129.4,-9999.0,'1111122,1111122,1111122' 
DISL,ioos:station:DISL:DISL:1,2012-02-04T08:00:00Z,30.2513,-88.0778,9.68,5.76,122.9,-9999.0,'1111122,1111122,1111122' 
DISL,ioos:station:DISL:DISL:1,2012-02-04T08:30:00Z,30.2513,-88.0778,9.68,4.46,116.6,-9999.0,'1111122,1111122,1111122' 
DISL,ioos:station:DISL:DISL:1,2012-02-04T09:00:00Z,30.2513,-88.0778,9.68,5.62,134.8,-9999.0,'1111122,1111122,1111122' 
DISL,ioos:station:DISL:DISL:1,2012-02-04T09:30:00Z,30.2513,-88.0778,9.68,3.43,125.6,-9999.0,'1111122,1111122,1111122' 
DISL,ioos:station:DISL:DISL:1,2012-02-04T10:00:00Z,30.2513,-88.0778,9.68,2.96,110.5,-9999.0,'1111122,1111122,1111122' 
DISL,ioos:station:DISL:DISL:1,2012-02-04T10:30:00Z,30.2513,-88.0778,9.68,3.97,118.2,-9999.0,'1111122,1111122,1111122' 
DISL,ioos:station:DISL:DISL:1,2012-02-04T11:00:00Z,30.2513,-88.0778,9.68,4.42,104.1,-9999.0,'1111122,1111122,1111122' 
DISL,ioos:station:DISL:DISL:1,2012-02-04T11:30:00Z,30.2513,-88.0778,9.68,4.69,101.1,-9999.0,'1111122,1111122,1111122' 
DISL,ioos:station:DISL:DISL:1,2012-02-04T12:00:00Z,30.2513,-88.0778,9.68,5.17,100.9,-9999.0,'1111122,1111122,1111122' 
DISL,ioos:station:DISL:DISL:1,2012-02-04T12:30:00Z,30.2513,-88.0778,9.68,4.96,104.7,-9999.0,'1111122,1111122,1111122' 
DISL,ioos:station:DISL:DISL:1,2012-02-04T13:00:00Z,30.2513,-88.0778,9.68,4.42,108.4,-9999.0,'1111122,1111122,1111122' 
DISL,ioos:station:DISL:DISL:1,2012-02-04T13:30:00Z,30.2513,-88.0778,9.68,5.2,101.3,-9999.0,'1111122,1111122,1111122' 
DISL,ioos:station:DISL:DISL:1,2012-02-04T14:00:00Z,30.2513,-88.0778,9.68,6.37,108.4,-9999.0,'1111122,1111122,1111122' 
DISL,ioos:station:DISL:DISL:1,2012-02-04T14:30:00Z,30.2513,-88.0778,9.68,5.85,112.3,-9999.0,'1111122,1111122,1111122' 
DISL,ioos:station:DISL:DISL:1,2012-02-04T15:00:00Z,30.2513,-88.0778,9.68,5.97,106.3,-9999.0,'1111122,1111122,1111122' 
DISL,ioos:station:DISL:DISL:1,2012-02-04T15:30:00Z,30.2513,-88.0778,9.68,6.03,112.9,-9999.0,'1111122,1111122,1111122' 
DISL,ioos:station:DISL:DISL:1,2012-02-04T16:00:00Z,30.2513,-88.0778,9.68,5.79,112.6,-9999.0,'1111122,1111122,1111122' 
DISL,ioos:station:DISL:DISL:1,2012-02-04T16:30:00Z,30.2513,-88.0778,9.68,6.06,115.0,-9999.0,'1111122,1111122,1111122' 
DISL,ioos:station:DISL:DISL:1,2012-02-04T17:00:00Z,30.2513,-88.0778,9.68,6.15,114.3,-9999.0,'1111122,1111122,1111122' 
DISL,ioos:station:DISL:DISL:1,2012-02-04T17:30:00Z,30.2513,-88.0778,9.68,6.15,114.8,-9999.0,'1111122,1111122,1111122' 
DISL,ioos:station:DISL:DISL:1,2012-02-04T18:00:00Z,30.2513,-88.0778,9.68,6.16,115.4,-9999.0,'1111122,1111122,1111122' 
DISL,ioos:station:DISL:DISL:1,2012-02-04T18:30:00Z,30.2513,-88.0778,9.68,4.81,119.7,-9999.0,'1111122,1111122,1111122' 
DISL,ioos:station:DISL:DISL:1,2012-02-04T19:00:00Z,30.2513,-88.0778,9.68,4.59,118.2,-9999.0,'1111122,1111122,1111122' 
DISL,ioos:station:DISL:DISL:1,2012-02-04T19:30:00Z,30.2513,-88.0778,9.68,4.58,127.3,-9999.0,'1111122,1111122,1111122' 
DISL,ioos:station:DISL:DISL:1,2012-02-04T20:00:00Z,30.2513,-88.0778,9.68,3.58,121.5,-9999.0,'1111122,1111122,1111122' 
DISL,ioos:station:DISL:DISL:1,2012-02-04T20:30:00Z,30.2513,-88.0778,9.68,3.15,129.4,-9999.0,'1111122,1111122,1111122' 
DISL,ioos:station:DISL:DISL:1,2012-02-04T21:00:00Z,30.2513,-88.0778,9.68,3.9,123.1,-9999.0,'1111122,1111122,1111122' 
DISL,ioos:station:DISL:DISL:1,2012-02-04T21:30:00Z,30.2513,-88.0778,9.68,4.22,115.9,-9999.0,'1111122,1111122,1111122' 
DISL,ioos:station:DISL:DISL:1,2012-02-04T22:00:00Z,30.2513,-88.0778,9.68,3.82,121.5,-9999.0,'1111122,1111122,1111122' 
DISL,ioos:station:DISL:DISL:1,2012-02-04T22:30:00Z,30.2513,-88.0778,9.68,3.31,126.9,-9999.0,'1111122,1111122,1111122' 
DISL,ioos:station:DISL:DISL:1,2012-02-04T23:00:00Z,30.2513,-88.0778,9.68,4.52,125.5,-9999.0,'1111122,1111122,1111122' 
DISL,ioos:station:DISL:DISL:1,2012-02-04T23:30:00Z,30.2513,-88.0778,9.68,3.38,118.6,-9999.0,'1111122,1111122,1111122' 
DISL,ioos:station:DISL:DISL:1,2012-02-05T00:00:00Z,30.2513,-88.0778,9.68,3.44,123.9,-9999.0,'1111122,1111122,1111122' 
DISL,ioos:station:DISL:DISL:1,2012-02-05T00:30:00Z,30.2513,-88.0778,9.68,1.98,140.0,-9999.0,'1111122,1111122,1111122' 
DISL,ioos:station:DISL:DISL:1,2012-02-05T01:00:00Z,30.2513,-88.0778,9.68,1.79,132.9,-9999.0,'1111122,1111122,1111122' 
DISL,ioos:station:DISL:DISL:1,2012-02-05T01:30:00Z,30.2513,-88.0778,9.68,1.57,122.0,-9999.0,'1111122,1111122,1111122' 
DISL,ioos:station:DISL:DISL:1,2012-02-05T02:00:00Z,30.2513,-88.0778,9.68,2.08,131.7,-9999.0,'1111122,1111122,1111122' 
DISL,ioos:station:DISL:DISL:1,2012-02-05T02:30:00Z,30.2513,-88.0778,9.68,2.95,125.9,-9999.0,'1111122,1111122,1111122' 
DISL,ioos:station:DISL:DISL:1,2012-02-05T03:00:00Z,30.2513,-88.0778,9.68,2.21,125.1,-9999.0,'1111122,1111122,1111122' 
DISL,ioos:station:DISL:DISL:1,2012-02-05T03:30:00Z,30.2513,-88.0778,9.68,2.66,131.8,-9999.0,'1111122,1111122,1111122' 
DISL,ioos:station:DISL:DISL:1,2012-02-05T04:00:00Z,30.2513,-88.0778,9.68,1.38,127.7,-9999.0,'1111122,1111122,1111122' 